Location: Campestrin
(46.4667°N, 11.7167°E)
Time: 10:23:55
(UTC+00:00)

RESURS DK-1 - Pass Details

Date: 18 April 2021
Orbit: 554 x 563 km, 69.9° (Epoch: 06 May)

Event Time Altitude Azimuth Distance (km) Brightness Sun altitude
Rises 20:16:12 0° 231° (SW) 2,729 6.0 -20.2°
Reaches altitude 10° 20:18:33 10° 241° (WSW) 1,840 5.2 -20.5°
Maximum altitude 20:22:18 33° 306° (NW) 951 4.1 -21.0°
Drops below altitude 10° 20:26:05 10° 12° (NNE) 1,857 5.4 -21.4°
Sets 20:28:28 0° 22° (NNE) 2,759 6.2 -21.7°
